TimeCDT,TemperatureF,Dew PointF,Humidity,Sea Level PressureIn,VisibilityMPH,Wind Direction,Wind SpeedMPH,Gust SpeedMPH,PrecipitationIn,Events,Conditions,WindDirDegrees,DateUTC
12:15 AM,35.6,28.4,75,30.13,10.0,West,3.5,-,N/A,,Overcast,280,2012-10-07 05:15:00
12:35 AM,35.6,28.4,75,30.13,10.0,Calm,Calm,-,N/A,,Overcast,0,2012-10-07 05:35:00
12:55 AM,35.6,28.4,75,30.13,10.0,Calm,Calm,-,N/A,,Overcast,0,2012-10-07 05:55:00
1:15 AM,35.6,28.4,75,30.13,10.0,Calm,Calm,-,N/A,,Overcast,0,2012-10-07 06:15:00
1:35 AM,35.6,28.4,75,30.13,10.0,Calm,Calm,-,N/A,,Overcast,0,2012-10-07 06:35:00
1:55 AM,33.8,28.4,81,30.12,10.0,West,3.5,-,N/A,,Overcast,270,2012-10-07 06:55:00
2:15 AM,35.6,28.4,75,30.12,10.0,West,3.5,-,N/A,,Overcast,270,2012-10-07 07:15:00
2:35 AM,35.6,28.4,75,30.12,10.0,West,4.6,-,N/A,,Mostly Cloudy,270,2012-10-07 07:35:00
2:55 AM,35.6,28.4,75,30.11,10.0,Calm,Calm,-,N/A,,Overcast,0,2012-10-07 07:55:00
3:15 AM,35.6,28.4,75,30.11,10.0,Calm,Calm,-,N/A,,Scattered Clouds,0,2012-10-07 08:15:00
3:55 AM,32.0,26.6,80,30.10,10.0,Calm,Calm,-,N/A,,Clear,0,2012-10-07 08:55:00
4:15 AM,32.0,26.6,80,30.10,10.0,Calm,Calm,-,N/A,,Clear,0,2012-10-07 09:15:00
4:35 AM,32.0,26.6,80,30.10,10.0,Calm,Calm,-,N/A,,Clear,0,2012-10-07 09:35:00
4:55 AM,30.2,26.6,86,30.10,10.0,Calm,Calm,-,N/A,,Clear,0,2012-10-07 09:55:00
5:15 AM,30.2,24.8,80,30.10,10.0,Calm,Calm,-,N/A,,Clear,0,2012-10-07 10:15:00
5:35 AM,30.2,26.6,86,30.09,10.0,Calm,Calm,-,N/A,,Clear,0,2012-10-07 10:35:00
5:55 AM,28.4,24.8,86,30.09,10.0,Calm,Calm,-,N/A,,Clear,0,2012-10-07 10:55:00
6:15 AM,28.4,24.8,86,30.09,10.0,Calm,Calm,-,N/A,,Clear,0,2012-10-07 11:15:00
6:35 AM,28.4,23.0,80,30.09,10.0,Calm,Calm,-,N/A,,Clear,0,2012-10-07 11:35:00
6:55 AM,28.4,23.0,80,30.09,10.0,Calm,Calm,-,N/A,,Clear,0,2012-10-07 11:55:00
7:15 AM,28.4,23.0,80,30.09,10.0,Calm,Calm,-,N/A,,Clear,0,2012-10-07 12:15:00
7:35 AM,28.4,26.6,93,30.09,10.0,Calm,Calm,-,N/A,,Clear,0,2012-10-07 12:35:00
7:55 AM,30.2,26.6,86,30.09,10.0,Calm,Calm,-,N/A,,Clear,0,2012-10-07 12:55:00
8:15 AM,32.0,28.4,87,30.09,10.0,Calm,Calm,-,N/A,,Clear,0,2012-10-07 13:15:00
8:35 AM,32.0,28.4,87,30.08,10.0,Calm,Calm,-,N/A,,Clear,0,2012-10-07 13:35:00
8:55 AM,35.6,30.2,81,30.08,10.0,WSW,4.6,-,N/A,,Clear,240,2012-10-07 13:55:00
9:15 AM,35.6,28.4,75,30.08,10.0,WSW,6.9,-,N/A,,Clear,240,2012-10-07 14:15:00
9:35 AM,37.4,28.4,70,30.07,10.0,WSW,4.6,-,N/A,,Clear,240,2012-10-07 14:35:00
9:55 AM,39.2,26.6,61,30.07,10.0,West,10.4,-,N/A,,Clear,260,2012-10-07 14:55:00
10:15 AM,41.0,26.6,57,30.07,10.0,WSW,9.2,18.4,N/A,,Clear,240,2012-10-07 15:15:00
10:35 AM,41.0,23.0,49,30.06,10.0,WSW,12.7,18.4,N/A,,Clear,250,2012-10-07 15:35:00
10:55 AM,41.0,23.0,49,30.06,10.0,West,13.8,19.6,N/A,,Clear,280,2012-10-07 15:55:00
11:15 AM,41.0,23.0,49,30.06,10.0,West,11.5,17.3,N/A,,Clear,270,2012-10-07 16:15:00
11:35 AM,41.0,23.0,49,30.05,10.0,WSW,11.5,-,N/A,,Clear,250,2012-10-07 16:35:00
11:55 AM,42.8,23.0,46,30.04,10.0,West,9.2,-,N/A,,Clear,270,2012-10-07 16:55:00
12:15 PM,42.8,19.4,39,30.04,10.0,WSW,11.5,19.6,N/A,,Clear,240,2012-10-07 17:15:00
12:35 PM,44.6,19.4,37,30.03,10.0,WSW,12.7,19.6,N/A,,Clear,250,2012-10-07 17:35:00
12:55 PM,44.6,19.4,37,30.02,10.0,SW,13.8,21.9,N/A,,Clear,230,2012-10-07 17:55:00
1:35 PM,44.6,17.6,34,30.01,10.0,WSW,10.4,18.4,N/A,,Scattered Clouds,240,2012-10-07 18:35:00
1:55 PM,44.6,15.8,31,30.00,10.0,WSW,10.4,23.0,N/A,,Scattered Clouds,250,2012-10-07 18:55:00
2:15 PM,44.6,17.6,34,29.99,10.0,WSW,9.2,23.0,N/A,,Scattered Clouds,240,2012-10-07 19:15:00
2:35 PM,46.4,19.4,34,29.99,10.0,WSW,9.2,23.0,N/A,,Scattered Clouds,250,2012-10-07 19:35:00
2:55 PM,44.6,17.6,34,29.99,10.0,SW,12.7,19.6,N/A,,Mostly Cloudy,230,2012-10-07 19:55:00
3:15 PM,46.4,17.6,32,29.98,10.0,West,11.5,19.6,N/A,,Scattered Clouds,270,2012-10-07 20:15:00
3:35 PM,46.4,17.6,32,29.98,10.0,West,10.4,18.4,N/A,,Clear,260,2012-10-07 20:35:00
3:55 PM,46.4,17.6,32,29.96,10.0,WSW,8.1,19.6,N/A,,Scattered Clouds,250,2012-10-07 20:55:00
4:15 PM,44.6,17.6,34,29.96,10.0,WSW,10.4,17.3,N/A,,Clear,250,2012-10-07 21:15:00
4:35 PM,44.6,17.6,34,29.96,10.0,West,8.1,17.3,N/A,,Clear,270,2012-10-07 21:35:00
4:55 PM,44.6,17.6,34,29.96,10.0,WSW,12.7,-,N/A,,Clear,240,2012-10-07 21:55:00
5:15 PM,44.6,17.6,34,29.95,10.0,West,11.5,19.6,N/A,,Clear,270,2012-10-07 22:15:00
5:35 PM,44.6,17.6,34,29.95,10.0,WSW,10.4,-,N/A,,Clear,250,2012-10-07 22:35:00
5:55 PM,42.8,17.6,36,29.95,10.0,WSW,8.1,-,N/A,,Clear,240,2012-10-07 22:55:00
6:15 PM,42.8,15.8,34,29.95,10.0,SW,6.9,-,N/A,,Clear,220,2012-10-07 23:15:00
6:35 PM,41.0,15.8,36,29.94,10.0,SW,4.6,-,N/A,,Clear,220,2012-10-07 23:35:00
6:55 PM,41.0,17.6,39,29.95,10.0,SSW,3.5,-,N/A,,Clear,210,2012-10-07 23:55:00
7:15 PM,37.4,17.6,45,29.95,10.0,SSW,4.6,-,N/A,,Clear,210,2012-10-08 00:15:00
7:35 PM,37.4,17.6,45,29.96,10.0,SSW,4.6,-,N/A,,Clear,210,2012-10-08 00:35:00
7:55 PM,37.4,17.6,45,29.96,10.0,SW,3.5,-,N/A,,Clear,220,2012-10-08 00:55:00
8:15 PM,37.4,19.4,48,29.96,10.0,Calm,Calm,-,N/A,,Clear,0,2012-10-08 01:15:00
8:35 PM,35.6,17.6,48,29.96,10.0,Calm,Calm,-,N/A,,Clear,0,2012-10-08 01:35:00
8:55 PM,35.6,19.4,52,29.96,10.0,Calm,Calm,-,N/A,,Clear,0,2012-10-08 01:55:00
9:15 PM,35.6,19.4,52,29.96,10.0,SSW,3.5,-,N/A,,Clear,200,2012-10-08 02:15:00
9:35 PM,32.0,19.4,60,29.95,10.0,SSW,4.6,-,N/A,,Clear,200,2012-10-08 02:35:00
9:55 PM,35.6,19.4,52,29.95,10.0,SSW,5.8,-,N/A,,Clear,200,2012-10-08 02:55:00
10:15 PM,35.6,19.4,52,29.94,10.0,SSW,6.9,-,N/A,,Clear,200,2012-10-08 03:15:00
10:35 PM,35.6,19.4,52,29.94,10.0,SSW,6.9,-,N/A,,Clear,210,2012-10-08 03:35:00
10:55 PM,35.6,19.4,52,29.93,10.0,SSW,6.9,-,N/A,,Clear,210,2012-10-08 03:55:00
11:15 PM,35.6,19.4,52,29.93,10.0,SSW,6.9,-,N/A,,Clear,200,2012-10-08 04:15:00
11:35 PM,35.6,19.4,52,29.93,10.0,SSW,6.9,-,N/A,,Clear,200,2012-10-08 04:35:00
11:55 PM,35.6,19.4,52,29.92,10.0,SSW,5.8,-,N/A,,Clear,200,2012-10-08 04:55:00